This is the latest recevied weather packets stored in our database for station/object HK3BJ-11. If no packets are shown the sender has not sent any weather packets the latest 10 day(s).
| Time | Temp. | Humidity | Pressure | Rain* | Wind** | Luminosity | Snow |
|---|---|---|---|---|---|---|---|
| 1787732021 | 10.56° C | 92% | 1019 hPa | 0 mm | - | - | - |
| 1787731072 | 10.56° C | 92% | 1019 hPa | 0 mm | - | - | - |
| 1787730128 | 10.56° C | 91% | 1019 hPa | 0 mm | - | - | - |
| 1787728232 | 11.11° C | 89% | 1019 hPa | 0 mm | - | - | - |
| 1787727289 | 11.11° C | 90% | 1019 hPa | 0 mm | - | - | - |
| 1787726349 | 11.11° C | 89% | 1019 hPa | 0 mm | - | - | - |
| 1787725404 | 11.11° C | 87% | 1019 hPa | 0 mm | - | - | - |
| 1787724458 | 11.11° C | 87% | 1019 hPa | 0 mm | - | - | - |
| 1787723517 | 11.11° C | 88% | 1019 hPa | 0 mm | - | - | - |
| 1787722576 | 11.11° C | 85% | 1019 hPa | 0 mm | - | - | - |
| 1787721631 | 11.67° C | 80% | 1020 hPa | 0 mm | - | - | - |
| 1787720685 | 11.67° C | 80% | 1020 hPa | 0 mm | - | - | - |
| 1787719742 | 11.67° C | 83% | 1020 hPa | 0 mm | - | - | - |
| 1787718799 | 11.11° C | 81% | 1020 hPa | 0 mm | - | - | - |
| 1787717858 | 12.22° C | 76% | 1021 hPa | 0 mm | - | - | - |
| 1787715970 | 12.22° C | 80% | 1021 hPa | 0 mm | - | - | - |
| 1787715026 | 12.22° C | 80% | 1021 hPa | 0 mm | - | - | - |
| 1787714081 | 12.78° C | 77% | 1021 hPa | 0 mm | - | - | - |
| 1787713134 | 12.78° C | 80% | 1021 hPa | 0 mm | - | - | - |
| 1787712184 | 12.78° C | 78% | 1020 hPa | 0 mm | - | - | - |
| 1787711237 | 12.78° C | 71% | 1020 hPa | 0 mm | - | - | - |
| 1787710289 | 12.78° C | 74% | 1020 hPa | 0 mm | - | - | - |
| 1787709345 | 12.78° C | 78% | 1020 hPa | 0 mm | - | - | - |
| 1787708386 | 12.78° C | 76% | 1020 hPa | 0 mm | - | - | - |
| 1787707440 | 12.78° C | 67% | 1019 hPa | 0 mm | - | - | - |
* Rain latest hour (hover to see other rain measurements)
** Current wind speed in m/s (hover to see current wind gust speed)